#timestamp,LO_Frequency,Hit,StdDev 
1568376015.5,286047000.5,N
1568376035.4,286046999.9,N
1568376055.2,286046999.7,N
1568376075.1,286047002.6,N
1568376076.0,286047002.6,N
1568376095.8,286047002.6,N
1568376115.6,286047002.3,N
1568376135.5,286047000.2,N
1568376155.3,286046999.9,N
1568376175.1,286047002.3,N
1568376195.9,286047002.5,N
1568376215.7,286047000.5,N
1568376235.6,286047000.4,N
1568376255.4,286047001.2,N
1568376275.2,286046999.9,N
1568376295.1,286047002.1,N
1568376296.0,286047002.1,N
1568376315.8,286047001.9,N
1568376335.7,286047002.5,N
1568376355.5,286047001.6,N
1568376375.3,286047002.6,N
1568376425.2,286047003.7,E
1568376435.1,286047002.3,N
1568376455.8,286046998.2,P
1568376475.7,286046998.6,N
1568376495.5,286046998.5,N
1568376515.4,286046998.4,N
1568376535.2,286047001.0,N
1568376555.0,286047000.0,N
1568376555.9,286047000.0,N
1568376575.8,286047001.1,N
1568376595.6,286047000.6,N
1568376615.4,286047000.0,N
1568376635.3,286047001.2,N
1568376655.1,286047001.1,N
1568376675.9,286047000.5,N
1568376695.7,286047001.1,N
1568376715.5,286046998.4,N
1568376735.4,286046998.4,N
1568376755.2,286047000.2,N
1568376775.1,286047000.4,N
1568376776.0,286047000.4,N
1568376795.8,286047000.7,N
1568376815.6,286047000.7,N
1568376835.5,286046999.0,N
1568376855.3,286046997.7,N
1568376875.1,286046999.4,N
1568376895.9,286046998.3,N
1568376915.7,286046998.4,N
1568376935.6,286046999.0,N
1568376955.4,286046996.7,N
1568376975.2,286046997.3,N
1568376995.1,286046997.0,N
1568376996.0,286046997.0,N
1568377015.8,286046999.4,N
1568377035.7,286046999.5,N
1568377055.5,286046996.9,N
1568377075.3,286046999.2,N
1568377095.2,286046998.9,N
1568377115.0,286046998.6,N
1568377135.4,286047001.2,N
1568377155.2,286047000.9,N
1568377175.0,286047000.3,N
1568377175.9,286047000.3,N
1568377195.8,286047000.3,N
1568377215.6,286047000.4,N
1568377235.5,286047000.9,N
1568377255.3,286047000.3,N
1568377275.1,286047000.4,N
1568377295.9,286047001.1,N
1568377315.7,286047000.1,N
1568377335.6,286047000.3,N
1568377355.4,286047000.3,N
1568377375.2,286047000.4,N
1568377395.1,286047000.3,N
1568377396.0,286047000.3,N
1568377415.8,286047001.0,N
1568377435.7,286047001.0,N
1568377455.5,286046999.9,N
1568377475.3,286047001.2,N
1568377495.2,286046997.1,N
1568377515.0,286046996.8,N
1568377515.9,286046996.8,N
1568377535.8,286046999.4,N
1568377555.6,286046998.8,N
1568377575.4,286046998.9,N
1568377595.3,286046998.7,N
1568377615.1,286046998.3,N
1568377635.8,286046999.4,N
1568377655.7,286046997.0,N
1568377675.5,286046996.5,N
1568377695.4,286046999.1,N
1568377715.2,286046999.0,N
1568377735.0,286046998.3,N
1568377735.9,286046998.3,N
1568377755.8,286046999.0,N
1568377775.6,286046999.0,N
1568377795.5,286046996.8,N
1568377815.3,286046993.4,Y
1568377835.1,286046994.9,P
1568377855.9,286046996.7,N
1568377875.7,286046997.5,N
1568377895.6,286046999.4,N
1568377915.4,286046998.7,N
1568377935.2,286046998.5,N
1568377955.1,286046998.3,N
1568377956.0,286046998.3,N
1568377975.8,286046998.3,N
1568377995.6,286047000.9,N
1568378015.5,286047000.3,N
1568378035.3,286047000.3,N
1568378055.2,286047000.3,N
1568378075.9,286047001.0,N
1568378095.7,286047000.3,N
1568378115.6,286047000.9,N
1568378135.4,286047002.6,N
1568378155.2,286047002.0,N
1568378175.1,286047000.1,N
1568378176.0,286047000.1,N
1568378195.8,286047000.9,N
1568378215.7,286047000.3,N
1568378235.5,286046999.8,N
1568378255.3,286047002.3,N
1568378275.2,286047002.3,N
1568378295.0,286047000.6,N
1568378295.9,286047000.6,N
1568378315.7,286047000.0,N
1568378335.6,286047000.3,N
1568378355.4,286047000.8,N
1568378375.3,286047002.3,N
1568378395.1,286047002.0,N
1568378415.8,286047002.3,N
1568378435.7,286047002.2,N
1568378455.5,286047002.2,N
1568378475.4,286047001.3,N
1568378495.2,286047004.1,Y
1568378515.0,286047004.4,P
1568378515.9,286047004.4,N
1568378535.8,286047003.9,N
1568378555.6,286047002.9,N
1568378575.5,286047003.6,N
1568378595.3,286047001.5,N
1568378615.1,286047001.5,N
1568378635.9,286047004.4,Y
1568378655.7,286047000.0,P
1568378675.5,286047000.6,N
1568378695.4,286047002.7,N
1568378715.2,286047000.4,N
1568378735.1,286047001.2,N
1568378736.0,286047001.2,N
1568378755.8,286046998.3,N
1568378775.6,286047001.0,N
1568378795.5,286047000.9,N
1568378815.3,286046996.9,N
1568378835.2,286046999.6,N
1568378855.9,286046999.0,N
1568378875.7,286046998.8,N
1568378895.6,286046999.3,N
1568378915.4,286046998.8,N
1568378935.2,286046998.5,N
1568378955.1,286047001.0,N
1568378956.0,286047001.0,N
1568378975.8,286047001.0,N
1568378995.7,286046998.1,N
1568379015.5,286046999.0,N
1568379035.3,286046996.9,N
1568379055.2,286046996.8,N
1568379075.0,286046997.9,N
1568379075.9,286046997.9,N
1568379095.8,286046995.4,N
1568379115.6,286046995.5,N
1568379135.4,286046995.6,N
1568379155.3,286046997.9,N
1568379175.1,286046997.2,N
1568379195.8,286046997.5,N
1568379215.7,286046997.4,N
1568379235.5,286046995.6,N
1568379255.4,286046996.1,N
1568379275.2,286046995.8,N
1568379295.0,286046995.8,N
1568379295.9,286046995.8,N
1568379315.8,286046995.8,N
1568379335.6,286046995.0,N
1568379355.4,286046995.1,N
1568379375.3,286046995.2,N
1568379395.1,286046995.1,N
1568379415.9,286046996.1,N
1568379435.7,286046996.1,N
1568379455.5,286046993.4,Y
1568379475.4,286046997.3,P
1568379495.2,286046997.4,P
1568379515.1,286046997.3,P
1568379516.0,286046997.3,Y
1568379535.8,286047000.7,P
1568379555.6,286046999.6,N
1568379575.5,286047001.2,N
1568379595.3,286047001.0,N
